CW5102 Weather Reports


time (UTC)temp
C
wind
direction
speed
KPH
gust
KPH
rain 1hr
cm
rain 24hr
cm
rain mn
cm
humidity
%
barometer
mb
20260504215705 13 354 4.8 33.8 0.00 0.00 0.00 33 1001.7
20260504215206 13 13 6.4 32.2 0.00 0.00 0.00 33 1001.6
20260504214705 14 9 3.2 35.4 0.00 0.00 0.00 34 1001.7
20260504214205 14 6 12.9 35.4 0.00 0.00 0.00 32 1001.5
20260504213705 14 60 3.2 32.2 0.00 0.00 0.00 33 1001.4
20260504213206 14 358 8.0 32.2 0.00 0.00 0.00 32 1001.4
20260504212705 15 21 9.7 32.2 0.00 0.00 0.00 32 1001.4
20260504211205 15 349 8.0 32.2 0.00 0.00 0.00 31 1001.2
20260504210705 16 33 8.0 32.2 0.00 0.00 0.00 30 1001.0
20260504210206 15 28 12.9 32.2 0.00 0.00 0.00 30 1000.9
20260504205205 15 355 8.0 32.2 0.00 0.00 0.00 31 1001.0
20260504204705 15 17 8.0 25.7 0.00 0.00 0.00 31 1000.9
20260504204205 15 10 1.6 32.2 0.00 0.00 0.00 33 1000.9
20260504203205 15 3 8.0 41.8 0.00 0.00 0.00 32 1000.8
20260504202705 15 8 8.0 41.8 0.00 0.00 0.00 32 1000.8
20260504201705 16 25 6.4 27.4 0.00 0.00 0.00 32 1000.6
20260504201205 16 345 3.2 29.0 0.00 0.00 0.00 31 1000.6
20260504195705 16 12 9.7 33.8 0.00 0.00 0.00 31 1000.5
20260504195206 16 348 9.7 32.2 0.00 0.00 0.00 32 1000.5
20260504194706 16 17 8.0 32.2 0.00 0.00 0.00 32 1000.4
20260504193707 16 336 8.0 27.4 0.00 0.00 0.00 34 1000.4
20260504193205 16 10 11.3 32.2 0.00 0.00 0.00 33 1000.3
20260504192705 16 2 9.7 35.4 0.00 0.00 0.00 33 1000.2
20260504192205 16 14 9.7 35.4 0.00 0.00 0.00 33 1000.3
20260504191706 16 352 6.4 37.0 0.00 0.00 0.00 34 1000.1
20260504191205 16 12 9.7 37.0 0.00 0.00 0.00 32 1000.0
20260504190705 16 14 11.3 37.0 0.00 0.00 0.00 31 1000.1
20260504185706 17 357 11.3 35.4 0.00 0.00 0.00 32 999.9
20260504185205 16 0 6.4 35.4 0.00 0.00 0.00 32 999.7
20260504184705 16 52 8.0 24.1 0.00 0.00 0.00 33 999.6
20260504184205 16 348 6.4 29.0 0.00 0.00 0.00 34 999.6
20260504183705 16 355 8.0 29.0 0.00 0.00 0.00 33 999.6
20260504183205 16 22 8.0 29.0 0.00 0.00 0.00 33 999.3
20260504182705 16 355 9.7 35.4 0.00 0.00 0.00 33 999.4
20260504182206 16 355 14.5 35.4 0.00 0.00 0.00 32 999.4
20260504181706 16 17 11.3 35.4 0.00 0.00 0.00 32 999.3
20260504181205 16 9 8.0 35.4 0.00 0.00 0.00 33 999.2
20260504180705 16 24 6.4 22.5 0.00 0.00 0.00 32 999.0
20260504180206 16 325 4.8 32.2 0.00 0.00 0.00 32 998.9
20260504175706 16 339 6.4 32.2 0.00 0.00 0.00 31 999.0
20260504175206 16 5 11.3 32.2 0.00 0.00 0.00 31 998.9
20260504173703 16 346 3.2 32.2 0.00 0.00 0.00 32 998.8
20260504173204 16 355 9.7 33.8 0.00 0.00 0.00 31 998.7
20260504172703 16 334 3.2 33.8 0.00 0.00 0.00 32 998.8
20260504172203 16 351 9.7 37.0 0.00 0.00 0.00 32 998.8
20260504171704 16 351 3.2 37.0 0.00 0.00 0.00 36 998.7
20260504171203 16 20 4.8 32.2 0.00 0.00 0.00 34 998.7
20260504170703 16 15 4.8 29.0 0.00 0.00 0.00 37 998.5
20260504170203 16 303 3.2 27.4 0.00 0.00 0.00 39 998.5
20260504160203 15 344 8.0 20.9 0.00 0.00 0.00 37 998.2
20260504150703 15 315 4.8 27.4 0.00 0.00 0.00 39 997.9
20260504150203 15 5 9.7 27.4 0.00 0.00 0.00 37 997.9
20260504141203 14 12 12.9 37.0 0.00 0.00 0.00 36 997.8
20260504140204 14 11 11.3 33.8 0.00 0.00 0.00 37 997.7
20260504130703 14 16 4.8 27.4 0.00 0.00 0.00 44 996.9
20260504130203 14 355 8.0 19.3 0.00 0.00 0.00 45 996.8
20260504120203 13 319 4.8 22.5 0.00 0.00 0.00 43 996.1
20260504110704 12 324 8.0 20.9 0.00 0.00 0.00 45 995.4
20260504110203 12 271 3.2 14.5 0.00 0.00 0.00 46 995.4
20260504081702 11 263 3.2 12.9 0.00 0.00 0.00 44 997.5
20260504081202 11 307 1.6 11.3 0.00 0.00 0.00 44 997.6
20260504080702 12 323 1.6 11.3 0.00 0.00 0.00 43 997.6
20260504080202 12 225 3.2 12.9 0.00 0.00 0.00 43 997.8
20260504070203 12 233 1.6 11.3 0.00 0.00 0.00 40 998.7
20260504060202 13 293 3.2 9.7 0.00 0.00 0.00 37 1000.0
20260504050703 13 204 1.6 9.7 0.00 0.00 0.00 38 1001.0
20260504050203 13 210 1.6 8.0 0.00 0.00 0.00 39 1001.1
20260504045703 13 208 1.6 8.0 0.00 0.00 0.00 39 1001.2
20260504045203 13 204 1.6 4.8 0.00 0.00 0.00 38 1001.3
20260504044703 13 203 1.6 4.8 0.00 0.00 0.00 38 1001.4
20260504044203 13 211 0.0 4.8 0.00 0.00 0.00 38 1001.4
20260504043203 13 201 0.0 4.8 0.00 0.00 0.00 37 1001.7
20260504042703 13 235 1.6 4.8 0.00 0.00 0.00 36 1001.7
20260504042204 13 280 0.0 4.8 0.00 0.00 0.00 37 1001.8
20260504041202 13 204 0.0 3.2 0.00 0.00 0.00 36 1001.9
20260504040703 13 307 0.0 3.2 0.00 0.00 0.00 36 1002.0
20260504040203 13 317 0.0 0.0 0.00 0.00 0.00 36 1002.2
20260504035702 13 317 0.0 1.6 0.00 0.00 0.00 35 1002.3
20260504034703 13 317 0.0 4.8 0.00 0.00 0.00 35 1002.5
20260504034202 13 317 0.0 4.8 0.00 0.00 0.00 35 1002.6
20260504033703 13 317 0.0 4.8 0.00 0.00 0.00 35 1002.7
20260504033203 14 317 0.0 0.0 0.00 0.00 0.00 35 1002.8
20260504032702 14 317 0.0 0.0 0.00 0.00 0.00 34 1002.9
20260504032202 14 317 0.0 1.6 0.00 0.00 0.00 35 1003.0
20260504031703 14 317 0.0 1.6 0.00 0.00 0.00 34 1003.0
20260504031202 14 317 0.0 4.8 0.00 0.00 0.00 35 1003.0
20260504030703 14 317 0.0 4.8 0.00 0.00 0.00 35 1003.1
20260504030204 14 317 0.0 1.6 0.00 0.00 0.00 34 1003.0
20260504025703 14 317 0.0 0.0 0.00 0.00 0.00 33 1003.1
20260504025202 14 317 0.0 0.0 0.00 0.00 0.00 34 1003.1
20260504024203 14 317 0.0 0.0 0.00 0.00 0.00 33 1003.1
20260504022203 15 317 0.0 0.0 0.00 0.00 0.00 33 1003.3
20260504021703 15 317 0.0 0.0 0.00 0.00 0.00 32 1003.3
20260504021203 15 317 0.0 0.0 0.00 0.00 0.00 30 1003.4
20260504020703 15 317 0.0 0.0 0.00 0.00 0.00 30 1003.4
20260504020203 16 317 0.0 0.0 0.00 0.00 0.00 29 1003.4
20260504015203 16 317 0.0 3.2 0.00 0.00 0.00 28 1003.5
20260504014703 16 317 0.0 3.2 0.00 0.00 0.00 28 1003.4
20260504013703 16 317 0.0 4.8 0.00 0.00 0.00 28 1003.5
20260504013204 17 317 0.0 9.7 0.00 0.00 0.00 28 1003.6
20260504012703 17 358 1.6 9.7 0.00 0.00 0.00 28 1003.6
20260504012203 17 283 0.0 11.3 0.00 0.00 0.00 27 1003.6
20260504011703 17 301 1.6 11.3 0.00 0.00 0.00 27 1003.7
20260504011203 17 307 1.6 11.3 0.00 0.00 0.00 26 1003.6
20260504010703 17 273 1.6 8.0 0.00 0.00 0.00 27 1003.6
20260504010203 18 0 1.6 8.0 0.00 0.00 0.00 27 1003.6
20260504005703 18 0 0.0 8.0 0.00 0.00 0.00 26 1003.7
20260504005203 18 334 0.0 4.8 0.00 0.00 0.00 26 1003.7
20260504004703 18 241 0.0 3.2 0.00 0.00 0.00 25 1003.7
20260504004203 18 240 0.0 4.8 0.00 0.00 0.00 25 1003.7
20260504003703 18 246 0.0 4.8 0.00 0.00 0.00 24 1003.7
20260504003203 18 0 0.0 4.8 0.00 0.00 0.00 24 1003.8
20260504002703 18 0 0.0 4.8 0.00 0.00 0.00 23 1003.8
20260504001703 18 239 0.0 11.3 0.00 0.00 0.00 24 1003.8
20260504001203 18 290 1.6 11.3 0.00 0.00 0.00 23 1003.8
20260504000703 19 355 1.6 11.3 0.00 0.00 0.00 22 1003.9
20260504000204 19 229 1.6 11.3 0.00 0.00 0.00 23 1003.8
20260503235704 19 341 0.0 4.8 0.00 0.00 0.00 23 1003.9
20260503235204 19 260 0.0 8.0 0.00 0.00 0.00 23 1003.9
20260503234202 20 20 1.6 9.7 0.00 0.00 0.00 22 1003.9
20260503233702 20 303 0.0 9.7 0.00 0.00 0.00 22 1003.8
20260503233203 20 334 3.2 16.1 0.00 0.00 0.00 24 1003.8
20260503232203 20 11 0.0 16.1 0.00 0.00 0.00 21 1003.9
20260503231704 20 6 4.8 16.1 0.00 0.00 0.00 19 1003.9
20260503231203 20 18 3.2 12.9 0.00 0.00 0.00 20 1004.1
20260503230703 20 227 1.6 14.5 0.00 0.00 0.00 21 1004.2
20260503230203 20 12 1.6 14.5 0.00 0.00 0.00 21 1004.2
20260503225702 20 25 1.6 14.5 0.00 0.00 0.00 21 1004.2
20260503224702 20 355 3.2 19.3 0.00 0.00 0.00 19 1004.3
20260503224203 20 357 3.2 19.3 0.00 0.00 0.00 20 1004.4
20260503223703 20 348 1.6 19.3 0.00 0.00 0.00 19 1004.4
20260503223203 20 354 3.2 19.3 0.00 0.00 0.00 20 1004.4
20260503222703 20 357 3.2 19.3 0.00 0.00 0.00 20 1004.4
20260503222203 20 324 4.8 19.3 0.00 0.00 0.00 21 1004.4
20260503221703 20 318 3.2 19.3 0.00 0.00 0.00 20 1004.4
20260503221203 20 1 1.6 19.3 0.00 0.00 0.00 21 1004.4
20260503220703 20 19 0.0 9.7 0.00 0.00 0.00 21 1004.4
20260503220203 20 3 1.6 12.9 0.00 0.00 0.00 19 1004.5